DW1520 Weather Reports


time (UTC)temp
F
wind
direction
speed
knots
gust
knots
rain 1hr
in
rain 24hr
in
rain mn
in
humidity
%
barometer
mb
20260901025006 76 117 0.0 1.7 0.00 0.00 0.00 84 1009.3
20260901024505 76 117 0.0 0.9 0.00 0.00 0.00 83 1009.3
20260901024006 76 117 0.0 0.9 0.00 0.00 0.00 83 1009.2
20260901023506 76 117 0.0 0.0 0.00 0.00 0.00 83 1009.2
20260901022505 77 117 0.0 1.7 0.00 0.00 0.00 82 1009.1
20260901022006 77 117 0.0 0.0 0.00 0.00 0.00 83 1009.0
20260901021505 77 117 0.0 0.0 0.00 0.00 0.00 83 1009.0
20260901021006 77 117 0.0 0.0 0.00 0.00 0.00 83 1009.1
20260901020506 78 117 0.0 0.0 0.00 0.00 0.00 83 1009.1
20260901020005 78 117 0.0 0.0 0.00 0.00 0.00 83 1009.0
20260901015506 78 117 0.0 0.0 0.00 0.00 0.00 83 1009.0
20260901015006 78 117 0.0 0.0 0.00 0.00 0.00 84 1008.9
20260901014006 79 117 0.0 0.0 0.00 0.00 0.00 85 1008.7
20260901013006 80 117 0.0 0.9 0.00 0.00 0.00 85 1008.6
20260901012506 80 117 0.0 0.0 0.00 0.00 0.00 85 1008.6
20260901012006 80 117 0.0 0.0 0.00 0.00 0.00 85 1008.6
20260901011505 80 117 0.0 0.0 0.00 0.00 0.00 85 1008.6
20260901011005 80 117 0.0 0.0 0.00 0.00 0.00 85 1008.5
20260901010506 81 117 0.0 0.9 0.00 0.00 0.00 84 1008.5
20260901005505 81 117 0.0 0.9 0.00 0.00 0.00 83 1008.3
20260901005006 82 173 0.0 0.9 0.00 0.00 0.00 83 1008.3
20260901004506 82 173 0.0 0.9 0.00 0.00 0.00 83 1008.3
20260901004006 82 173 0.0 0.9 0.00 0.00 0.00 83 1008.3
20260901003505 82 173 0.0 0.9 0.00 0.00 0.00 83 1008.3
20260901002505 83 173 0.0 0.9 0.00 0.00 0.00 82 1008.3
20260901002006 83 173 0.9 0.9 0.00 0.00 0.00 82 1008.2
20260901001506 83 173 0.0 2.6 0.00 0.00 0.00 81 1008.2
20260901001006 83 173 0.9 2.6 0.00 0.00 0.00 81 1008.1
20260901000505 83 173 0.9 1.7 0.00 0.00 0.00 80 1008.1
20260901000005 83 173 0.0 0.9 0.00 0.00 0.00 80 1008.1
20260831235506 83 173 0.0 1.7 0.00 0.00 0.00 80 1008.0
20260831234505 84 173 0.0 1.7 0.00 0.00 0.00 79 1008.0
20260831234006 84 173 0.0 1.7 0.00 0.00 0.00 78 1007.9
20260831233505 84 173 0.0 0.9 0.00 0.00 0.00 78 1008.0
20260831233006 84 173 0.0 1.7 0.00 0.00 0.00 78 1008.0
20260831232005 84 173 0.0 0.9 0.00 0.00 0.00 77 1008.0
20260831231006 84 173 0.0 1.7 0.00 0.00 0.00 76 1007.9
20260831230505 84 173 0.0 1.7 0.00 0.00 0.00 75 1007.9
20260831230006 84 173 0.0 1.7 0.00 0.00 0.00 76 1008.0
20260831225505 84 173 0.9 1.7 0.00 0.00 0.00 75 1007.9
20260831225006 84 173 0.0 1.7 0.00 0.00 0.00 75 1007.9
20260831224006 85 173 0.0 0.9 0.00 0.00 0.00 76 1007.9
20260831223005 85 173 0.0 0.9 0.00 0.00 0.00 75 1007.7
20260831222505 85 173 0.0 1.7 0.00 0.00 0.00 75 1007.8
20260831222006 85 173 0.0 1.7 0.00 0.00 0.00 76 1007.8
20260831221505 85 173 0.9 1.7 0.00 0.00 0.00 76 1007.8
20260831221006 85 173 0.0 1.7 0.00 0.00 0.00 76 1007.8
20260831220006 85 173 0.0 1.7 0.00 0.00 0.00 74 1007.7
20260831215505 85 173 0.9 1.7 0.00 0.00 0.00 75 1007.8
20260831215006 85 173 0.0 1.7 0.00 0.00 0.00 75 1007.7
20260831214505 85 173 0.9 1.7 0.00 0.00 0.00 74 1007.8
20260831214005 85 173 0.9 1.7 0.00 0.00 0.00 74 1007.7
20260831213505 85 173 0.9 2.6 0.00 0.00 0.00 73 1007.6
20260831213005 85 173 0.9 2.6 0.00 0.00 0.00 75 1007.7
20260831212506 85 173 0.0 1.7 0.00 0.00 0.00 75 1007.6
20260831212005 85 173 0.9 2.6 0.00 0.00 0.00 74 1007.6
20260831211505 85 173 0.0 1.7 0.00 0.00 0.00 76 1007.6
20260831211006 85 173 0.9 0.9 0.00 0.00 0.00 76 1007.6
20260831210505 85 173 0.0 1.7 0.00 0.00 0.00 77 1007.6
20260831210005 85 173 0.9 2.6 0.00 0.00 0.00 77 1007.7
20260831205505 85 173 0.0 0.9 0.00 0.00 0.00 76 1007.7
20260831204505 84 173 0.0 1.7 0.00 0.00 0.00 78 1007.6
20260831204006 84 173 0.0 0.0 0.00 0.00 0.00 77 1007.6
20260831203506 84 173 0.0 0.0 0.00 0.00 0.00 79 1007.4
20260831203006 84 173 0.0 0.0 0.00 0.00 0.00 78 1007.5
20260831202505 84 173 0.0 0.0 0.00 0.00 0.00 78 1007.5
20260831202006 84 173 0.0 0.0 0.00 0.00 0.00 78 1007.5
20260831200506 83 173 0.0 0.9 0.00 0.00 0.00 78 1007.3
20260831200005 83 173 0.0 0.9 0.00 0.00 0.00 80 1007.2
20260831195505 83 173 0.0 0.9 0.00 0.00 0.00 79 1007.1
20260831194506 83 173 0.0 0.9 0.00 0.00 0.00 79 1007.1
20260831193505 83 173 0.0 1.7 0.00 0.00 0.00 80 1007.2
20260831193006 83 173 0.0 1.7 0.00 0.00 0.00 78 1007.2
20260831192506 83 173 0.0 2.6 0.00 0.00 0.00 79 1007.3
20260831191505 83 173 0.0 1.7 0.00 0.00 0.00 78 1007.4
20260831190506 83 173 0.0 0.9 0.00 0.00 0.00 79 1007.5
20260831190005 83 173 0.0 2.6 0.00 0.00 0.00 79 1007.3
20260831185505 83 173 0.0 2.6 0.00 0.00 0.00 78 1007.3
20260831185005 84 173 0.9 2.6 0.00 0.00 0.00 77 1007.3
20260831184506 84 173 0.0 2.6 0.00 0.00 0.00 77 1007.3
20260831184005 85 173 0.0 1.7 0.00 0.00 0.00 75 1007.2
20260831183505 85 173 0.0 1.7 0.00 0.00 0.00 74 1007.2
20260831183006 85 173 0.0 1.7 0.00 0.00 0.00 73 1007.1
20260831182505 86 173 0.9 1.7 0.00 0.00 0.00 72 1007.1
20260831182005 87 172 0.0 1.7 0.00 0.00 0.00 71 1007.1
20260831181505 87 172 0.0 0.9 0.00 0.00 0.00 70 1007.2
20260831181006 88 172 0.0 0.9 0.00 0.00 0.00 71 1007.1
20260831180506 88 172 0.0 1.7 0.00 0.00 0.00 71 1007.1
20260831175005 88 173 0.0 1.7 0.00 0.00 0.00 70 1007.3
20260831174005 87 172 0.0 1.7 0.00 0.00 0.00 68 1007.3
20260831173506 87 172 0.9 1.7 0.00 0.00 0.00 72 1007.4
20260831173006 87 172 0.0 0.9 0.00 0.00 0.00 70 1007.3
20260831172006 87 172 0.0 0.9 0.00 0.00 0.00 70 1007.5
20260831171505 87 172 0.0 0.9 0.00 0.00 0.00 71 1007.5
20260831171006 87 172 0.9 1.7 0.00 0.00 0.00 72 1007.6
20260831170506 86 172 0.9 1.7 0.00 0.00 0.00 72 1007.6
20260831170005 85 254 0.0 1.7 0.00 0.00 0.00 77 1007.7
20260831165006 85 226 0.0 0.9 0.00 0.00 0.00 75 1007.8
20260831164505 85 226 0.0 0.9 0.00 0.00 0.00 76 1007.7
20260831164005 85 226 0.9 2.6 0.00 0.00 0.00 74 1007.7
20260831162505 85 169 0.0 0.9 0.00 0.00 0.00 76 1007.5
20260831161505 85 169 0.0 0.9 0.00 0.00 0.00 76 1007.5
20260831160505 84 169 0.0 0.9 0.00 0.00 0.00 75 1007.4
20260831160005 84 169 0.0 1.7 0.00 0.00 0.00 76 1007.3
20260831155005 84 169 0.0 1.7 0.00 0.00 0.00 76 1007.2
20260831154505 84 169 0.0 1.7 0.00 0.00 0.00 77 1007.3
20260831154005 83 169 0.0 1.7 0.00 0.00 0.00 78 1007.3
20260831153006 83 169 0.0 1.7 0.00 0.00 0.00 80 1007.2
20260831152505 82 169 0.0 0.9 0.00 0.00 0.00 79 1007.2
20260831152005 82 169 0.0 1.7 0.00 0.00 0.00 81 1007.1
20260831151005 80 169 0.0 0.9 0.00 0.00 0.00 83 1006.9
20260831150005 80 169 0.9 1.7 0.00 0.00 0.00 83 1006.6
20260831145505 80 169 0.0 1.7 0.00 0.00 0.00 84 1006.6
20260831145005 79 169 0.9 1.7 0.00 0.00 0.00 85 1006.5
20260831144505 79 169 0.0 1.7 0.00 0.00 0.00 86 1006.5
20260831144005 78 169 0.9 1.7 0.00 0.00 0.00 85 1006.5
20260831143005 78 169 0.9 1.7 0.00 0.00 0.00 86 1006.5
20260831142006 78 169 0.9 1.7 0.00 0.00 0.00 87 1006.5
20260831141505 77 169 0.9 1.7 0.00 0.00 0.00 88 1006.4
20260831141006 77 169 0.9 1.7 0.00 0.00 0.00 89 1006.5
20260831140506 77 169 0.0 1.7 0.00 0.00 0.00 89 1006.5
20260831140005 76 169 0.9 1.7 0.00 0.00 0.00 90 1006.5
20260831135505 76 169 0.9 1.7 0.00 0.00 0.00 90 1006.4
20260831135005 76 169 0.0 1.7 0.00 0.00 0.00 90 1006.3
20260831134005 75 169 0.9 1.7 0.00 0.00 0.00 91 1006.3
20260831133505 74 169 0.9 4.3 0.00 0.00 0.00 91 1006.3
20260831133005 74 169 1.7 5.2 0.00 0.00 0.00 91 1006.2
20260831132505 74 169 2.6 4.3 0.00 0.00 0.00 91 1006.1
20260831132006 74 158 1.7 4.3 0.00 0.00 0.00 92 1006.0
20260831131505 73 158 1.7 4.3 0.00 0.00 0.00 92 1006.0
20260831131005 73 158 1.7 2.6 0.00 0.00 0.00 92 1005.9
20260831130505 73 158 0.9 2.6 0.00 0.00 0.00 92 1005.8
20260831125514 72 158 0.9 2.6 0.00 0.00 0.00 92 1005.9
20260831125006 71 158 0.9 1.7 0.00 0.00 0.00 92 1005.9
20260831124505 71 158 0.9 1.7 0.00 0.00 0.00 92 1005.9
20260831124006 71 158 0.9 2.6 0.00 0.00 0.00 92 1005.8
20260831123505 71 158 1.7 4.3 0.00 0.00 0.00 92 1005.9
20260831123005 70 158 1.7 2.6 0.00 0.00 0.00 92 1005.8
20260831122505 70 158 1.7 2.6 0.00 0.00 0.00 92 1005.6
20260831122005 70 158 1.7 4.3 0.00 0.00 0.00 92 1005.6
20260831121505 70 158 1.7 2.6 0.00 0.00 0.00 92 1005.4
20260831121006 70 158 1.7 2.6 0.00 0.00 0.00 92 1005.4
20260831120506 70 158 0.9 2.6 0.00 0.00 0.00 92 1005.3
20260831120005 70 158 0.9 1.7 0.00 0.00 0.00 92 1005.3
20260831115505 70 158 0.0 1.7 0.00 0.00 0.00 92 1005.3
20260831115005 70 158 0.9 1.7 0.00 0.00 0.00 92 1005.3
20260831114505 70 158 1.7 2.6 0.00 0.00 0.00 92 1005.3
20260831114005 70 158 0.9 1.7 0.00 0.00 0.00 92 1005.3
20260831113505 70 158 0.9 2.6 0.00 0.00 0.00 92 1005.1
20260831113005 70 158 0.9 1.7 0.00 0.00 0.00 92 1005.1
20260831112005 70 158 0.0 0.0 0.00 0.00 0.00 92 1005.2
20260831111506 71 158 0.0 0.0 0.00 0.00 0.00 92 1005.0
20260831110505 71 158 0.0 2.6 0.00 0.00 0.00 92 1005.1
20260831110005 71 158 1.7 4.3 0.00 0.00 0.00 92 1005.2
20260831105505 71 158 1.7 4.3 0.00 0.00 0.00 92 1005.2
20260831105005 71 158 0.9 1.7 0.00 0.00 0.00 92 1005.1
20260831104505 71 158 1.7 2.6 0.00 0.00 0.00 92 1005.0
20260831104006 71 150 0.9 2.6 0.00 0.00 0.00 92 1005.0
20260831103505 71 149 1.7 2.6 0.00 0.00 0.00 92 1005.1
20260831103005 71 149 0.9 2.6 0.00 0.00 0.00 92 1005.2
20260831102505 71 149 0.0 1.7 0.00 0.00 0.00 92 1005.3
20260831102006 71 149 0.9 2.6 0.00 0.00 0.00 91 1005.2
20260831100505 71 149 0.9 2.6 0.00 0.00 0.00 91 1005.2
20260831095505 71 149 0.9 2.6 0.00 0.00 0.00 91 1005.2
20260831095005 71 149 0.9 2.6 0.00 0.00 0.00 91 1005.2
20260831094005 71 149 0.9 1.7 0.00 0.00 0.00 91 1005.4
20260831093005 72 149 0.0 0.9 0.00 0.00 0.00 91 1005.2
20260831092505 72 149 0.9 1.7 0.00 0.00 0.00 91 1005.2
20260831092007 72 149 0.9 2.6 0.00 0.00 0.00 91 1005.2
20260831091506 72 149 0.9 2.6 0.00 0.00 0.00 91 1005.1
20260831091006 72 149 0.0 0.9 0.00 0.00 0.00 91 1005.2
20260831090506 72 149 0.0 0.0 0.00 0.00 0.00 91 1005.3
20260831090006 72 149 0.0 1.7 0.00 0.00 0.00 91 1005.2
20260831085506 72 149 0.0 1.7 0.00 0.00 0.00 91 1005.3
20260831085006 72 149 0.9 1.7 0.00 0.00 0.00 91 1005.3
20260831084506 72 149 0.0 1.7 0.00 0.00 0.00 91 1005.3
20260831084006 72 149 0.9 2.6 0.00 0.00 0.00 91 1005.2
20260831083506 73 149 0.9 1.7 0.00 0.00 0.00 90 1005.0
20260831083008 73 149 0.9 2.6 0.00 0.00 0.00 90 1005.0
20260831082506 73 154 0.9 2.6 0.00 0.00 0.00 91 1005.0
20260831081506 73 96 1.7 4.3 0.00 0.00 0.00 91 1005.0
20260831081006 73 162 1.7 6.1 0.00 0.00 0.00 90 1005.0
20260831080506 73 156 1.7 5.2 0.00 0.00 0.00 90 1005.0
20260831080006 73 159 2.6 4.3 0.00 0.00 0.00 90 1005.0
20260831075506 73 161 1.7 5.2 0.00 0.00 0.00 90 1005.0
20260831075006 73 140 0.9 4.3 0.00 0.00 0.00 90 1005.1
20260831074506 73 163 1.7 4.3 0.00 0.00 0.00 90 1005.2
20260831074007 73 163 2.6 4.3 0.00 0.00 0.00 90 1005.2
20260831073507 73 163 1.7 4.3 0.00 0.00 0.00 90 1005.2
20260831073006 73 159 1.7 4.3 0.00 0.00 0.00 90 1005.3
20260831072506 73 157 1.7 6.1 0.00 0.00 0.00 91 1005.3
20260831072006 73 161 2.6 4.3 0.00 0.00 0.00 91 1005.3
20260831071506 73 161 1.7 4.3 0.00 0.00 0.00 91 1005.2
20260831071006 73 160 1.7 4.3 0.00 0.00 0.00 90 1005.3
20260831070006 72 167 2.6 2.6 0.00 0.00 0.00 90 1005.4
20260831065506 72 167 1.7 2.6 0.00 0.00 0.00 90 1005.4
20260831065006 72 167 1.7 2.6 0.00 0.00 0.00 90 1005.4
20260831064506 72 167 1.7 2.6 0.00 0.00 0.00 90 1005.5
20260831064006 72 167 1.7 4.3 0.00 0.00 0.00 90 1005.5
20260831063006 72 161 0.9 2.6 0.00 0.00 0.00 90 1005.6
20260831062506 72 161 1.7 2.6 0.00 0.00 0.00 90 1005.8
20260831060506 72 165 0.9 2.6 0.00 0.00 0.00 89 1006.0
20260831060007 72 165 0.9 2.6 0.00 0.00 0.00 89 1005.9
20260831055506 72 165 0.9 2.6 0.00 0.00 0.00 89 1005.9
20260831055006 72 165 1.7 2.6 0.00 0.00 0.00 89 1005.9
20260831054507 72 165 0.9 2.6 0.00 0.00 0.00 89 1006.0
20260831054006 72 165 0.9 2.6 0.00 0.00 0.00 89 1006.0
20260831053506 72 165 0.9 1.7 0.00 0.00 0.00 88 1006.1
20260831053006 73 165 0.9 2.6 0.00 0.00 0.00 88 1006.1
20260831052506 73 165 1.7 2.6 0.00 0.00 0.00 88 1006.2
20260831052006 73 165 1.7 2.6 0.00 0.00 0.00 88 1006.1
20260831051006 73 159 1.7 4.3 0.00 0.00 0.00 88 1006.3
20260831050506 73 159 1.7 5.2 0.00 0.00 0.00 88 1006.2
20260831050006 73 159 1.7 4.3 0.00 0.00 0.00 87 1006.3
20260831045506 73 154 1.7 6.1 0.00 0.00 0.00 87 1006.3
20260831045006 73 160 1.7 4.3 0.00 0.00 0.00 87 1006.3
20260831044506 73 160 1.7 4.3 0.00 0.00 0.00 87 1006.3
20260831044006 73 160 1.7 4.3 0.00 0.00 0.00 87 1006.2
20260831043506 73 158 1.7 4.3 0.00 0.00 0.00 87 1006.3
20260831043006 73 162 1.7 4.3 0.00 0.00 0.00 86 1006.3
20260831042506 73 161 1.7 2.6 0.00 0.00 0.00 86 1006.3
20260831042006 73 158 1.7 4.3 0.00 0.00 0.00 86 1006.3
20260831041506 73 159 1.7 5.2 0.00 0.00 0.00 86 1006.2
20260831041006 73 153 0.9 5.2 0.00 0.00 0.00 86 1006.3
20260831040506 73 158 1.7 4.3 0.00 0.00 0.00 85 1006.3
20260831040006 73 158 1.7 4.3 0.00 0.00 0.00 85 1006.2
20260831035506 74 157 1.7 5.2 0.00 0.00 0.00 85 1006.3
20260831035007 74 165 1.7 5.2 0.00 0.00 0.00 85 1006.3
20260831034507 74 162 1.7 5.2 0.00 0.00 0.00 85 1006.3
20260831034007 74 151 2.6 5.2 0.00 0.00 0.00 85 1006.3
20260831033006 74 161 1.7 5.2 0.00 0.00 0.00 85 1006.5
20260831032506 74 161 1.7 5.2 0.00 0.00 0.00 84 1006.6
20260831032006 74 160 2.6 4.3 0.00 0.00 0.00 84 1006.6
20260831031506 74 150 1.7 4.3 0.00 0.00 0.00 84 1006.7
20260831031006 74 143 1.7 5.2 0.00 0.00 0.00 84 1006.7
20260831030506 74 154 2.6 5.2 0.00 0.00 0.00 84 1006.7
20260831030006 74 162 1.7 2.6 0.00 0.00 0.00 84 1006.8
20260831025506 74 165 2.6 5.2 0.00 0.00 0.00 84 1006.8